Location: Cowley
(49.5667°N, 114.0667°W)
Time: 11:06:29
(UTC+00:00)

Envisat - Pass Details

Date: 02 December 2021
Orbit: 764 x 766 km, 98.2° (Epoch: 25 January)

Event Time Altitude Azimuth Distance (km) Brightness Sun altitude
Rises 13:25:17 0° 9° (N) 3,247 6.2 -16.7°
Reaches altitude 10° 13:27:40 10° 4° (N) 2,316 5.4 -16.3°
Maximum altitude 13:32:32 47° 292° (WNW) 1,014 3.2 -15.5°
Drops below altitude 10° 13:37:22 10° 220° (SW) 2,300 5.2 -14.8°
Sets 13:39:44 0° 214° (SW) 3,221 6.1 -14.4°
